{"data":{"norad_id":59912,"intl_designator":"2024-102D","name":"TIANQI-28","alt_names":[],"object_type":"PAYLOAD","status":"ACTIVE","operator":null,"country":"PRC","launch_date":"2024-05-29","launch_site_code":"YSLA","launch_vehicle":null,"mission":null,"orbit_class":"UNKNOWN","rcs_meters":null,"size_class":null,"mass_kg":null,"dimensions":null,"purposes":[],"wikipedia_slug":null,"has_3d_model":false,"image_url":null,"decayed_at":null,"tle_current":{"epoch":"2026-05-25T01:41:14.040096Z","epoch_age_seconds":65159,"freshness":"FRESH","line1":"1 59912U 24102D   26145.07030139  .00000087  00000+0  14762-3 0  9993","line2":"2 59912  44.9802   4.5340 0011177 139.6343 220.5320 13.99158821101662","mean_motion":13.99158821,"eccentricity":0.0011177,"inclination_deg":44.9802,"raan_deg":4.534,"arg_perigee_deg":139.6343,"mean_anomaly_deg":220.532,"bstar":0.00014762,"rev_number":10166,"period_min":102.91898091818,"perigee_km":888.57835958034,"apogee_km":904.84055134688,"semimajor_km":7274.8464554636,"source":"CELESTRAK","updated_at":"2026-05-25T13:38:01.746532Z"}}}